Regional Weather Roundup
Issued by NWS

Home | Current Version | Previous Version | Text Only | Print | Product List | Glossary Off
Versions: 1 2 3 4 5 6 7 8 9 10 11 12 13 14 15 16 17 18 19 20 21 22 23 24 25 26 27 28 29 30 31 32 33 34 35 36 37 38 39 40 41 42 43 44 45 46 47 48 49 50

000
ASUS43 KLMK 230610
RWRKY
KENTUCKY REGIONAL WEATHER ROUNDUP
NATIONAL WEATHER SERVICE LOUISVILLE KY
100 AM EST MON JAN 23 2017

NOTE "FAIR" INDICATES FEW OR NO CLOUDS BELOW 12,000 FEET
WITH NO SIGNIFICANT WEATHER AND/OR OBSTRUCTIONS TO VISIBILITY.

KYZ001>023-026-027-061>063-070>075-230700-
WESTERN AND SOUTH CENTRAL KENTUCKY

CITY           SKY/WX    TMP DP  RH WIND       PRES   REMARKS
PADUCAH        CLOUDY    49  43  80 NW22G31   29.52R
HENDERSON      CLOUDY    52  45  76 NW12G24   29.48R
OWENSBORO      MOCLDY    54  50  86 N16       29.43R
HOPKINSVILLE   CLOUDY    57  51  81 N16G23    29.39R
BOWLING GREEN  CLOUDY    59  50  72 N14G21    29.33F
GLASGOW        CLOUDY    56  50  81 N12       29.31S
$$

KYZ024-025-028>034-038-045-046-053-230700-
NORTH CENTRAL KENTUCKY

CITY           SKY/WX    TMP DP  RH WIND       PRES   REMARKS
LOUISVILLE/SDF CLOUDY    58  48  69 N12       29.38S
LOUISVILLE/LOU CLOUDY    58  48  69 N8        29.38F
FORT KNOX      MOCLDY    56  49  78 N12       29.36S
$$

KYZ035>037-039>044-047>052-055>060-089>105-230700-
NORTHEAST KENTUCKY

CITY           SKY/WX    TMP DP  RH WIND       PRES   REMARKS
LEXINGTON      LGT RAIN  54  50  86 NE14      29.34S
COVINGTON      CLOUDY    55  48  77 N17       29.40F
FRANKFORT      CLOUDY    57  47  69 N13G22    29.35S
$$

KYZ054-064>069-076>088-106>120-230700-
SOUTHEAST KENTUCKY

CITY           SKY/WX    TMP DP  RH WIND       PRES   REMARKS
JACKSON        RAIN      52  51  97 NE8       29.29F FOG
LONDON         LGT RAIN  54  50  86 NE10G21   29.26F
SOMERSET       DRIZZLE   52  52 100 N9        29.28S
MIDDLESBORO    HVY RAIN  53  53 100 CALM      29.23S
MONTICELLO     HVY RAIN  54  53  97 N17G26    29.27F
$$




USA.gov is the U.S. government's official web portal to all federal, state and local government web resources and services.